GW2474 Weather Reports


time (UTC)temp
F
wind
direction
speed
knots
gust
knots
rain 1hr
in
rain 24hr
in
rain mn
in
humidity
%
barometer
mb
20260503210054 61 227 5.2 14.8 0.00 0.00 0.00 44 1010.4
20260503204552 61 261 9.6 20.9 0.00 0.00 0.00 44 1010.6
20260503203053 62 248 6.1 17.4 0.00 0.00 0.00 44 1010.6
20260503201550 61 192 9.6 19.1 0.00 0.00 0.00 43 1010.8
20260503200100 62 247 6.1 16.5 0.00 0.00 0.00 42 1010.9
20260503194556 62 257 4.3 10.4 0.00 0.00 0.00 42 1011.1
20260503193059 61 119 7.8 19.1 0.00 0.00 0.00 42 1011.2
20260503191603 62 264 5.2 15.6 0.00 0.00 0.00 43 1011.5
20260503190051 61 287 6.1 16.5 0.00 0.00 0.00 44 1011.7
20260503184552 61 269 6.1 15.6 0.00 0.00 0.00 43 1011.8
20260503183112 61 257 5.2 16.5 0.00 0.00 0.00 44 1012.1
20260503181614 59 242 5.2 17.4 0.00 0.00 0.00 46 1012.1
20260503180052 59 292 9.6 14.8 0.00 0.00 0.00 43 1012.4
20260503174553 59 286 8.7 20.0 0.00 0.00 0.00 45 1012.7
20260503173059 59 269 6.1 18.2 0.00 0.00 0.00 43 1012.9
20260503171558 58 290 7.8 16.5 0.00 0.00 0.00 45 1013.2
20260503100104 38 182 0.9 4.3 0.00 0.00 0.00 67 1014.6
20260503081552 37 230 0.0 1.7 0.00 0.00 0.00 68 1015.3
20260503071558 38 0 0.0 1.7 0.00 0.00 0.00 68 1015.5
20260503070110 38 0 0.0 1.7 0.00 0.00 0.00 68 1015.4
20260503060114 37 296 0.9 2.6 0.00 0.00 0.00 70 1015.9
20260503054559 37 296 0.0 1.7 0.00 0.00 0.00 70 1016.0
20260503053052 37 0 0.0 0.9 0.00 0.00 0.00 69 1016.1
20260503051554 38 0 0.0 1.7 0.00 0.00 0.00 69 1016.1
20260503050053 38 0 0.0 1.7 0.00 0.00 0.00 68 1016.3
20260503044548 39 0 0.0 2.6 0.00 0.00 0.00 68 1016.3
20260503043050 39 0 0.0 1.7 0.00 0.00 0.00 68 1016.2
20260503041555 39 0 0.0 1.7 0.00 0.00 0.00 68 1016.3
20260503040051 39 0 0.0 1.7 0.00 0.00 0.00 68 1016.4
20260503034606 40 0 0.0 0.9 0.00 0.00 0.00 68 1016.5
20260503033056 40 0 0.0 1.7 0.00 0.00 0.00 67 1016.5
20260503031557 41 296 0.0 1.7 0.00 0.00 0.00 66 1016.5
20260503030058 41 296 0.0 0.9 0.00 0.00 0.00 66 1016.6
20260503024556 41 0 0.0 0.9 0.00 0.00 0.00 64 1016.6
20260503023108 42 0 0.0 0.9 0.00 0.00 0.00 62 1016.7
20260503021553 43 0 0.0 0.9 0.00 0.00 0.00 60 1016.6
20260503020100 44 0 0.0 0.9 0.00 0.00 0.00 57 1016.4
20260503014604 44 0 0.0 1.7 0.00 0.00 0.00 56 1016.4
20260503013109 45 0 0.0 0.9 0.00 0.00 0.00 55 1016.2
20260503011610 45 315 0.0 0.9 0.00 0.00 0.00 54 1016.2
20260503010122 46 0 0.0 0.9 0.00 0.00 0.00 52 1016.1
20260503004600 46 0 0.0 0.9 0.00 0.00 0.00 50 1016.0
20260503003113 46 0 0.0 1.7 0.00 0.00 0.00 49 1015.9
20260503001610 47 315 0.9 4.3 0.00 0.00 0.00 49 1015.9
20260503000057 47 324 0.9 3.5 0.00 0.00 0.00 48 1015.9
20260502234548 47 308 1.7 7.0 0.00 0.00 0.00 49 1015.9
20260502233051 47 254 0.9 6.1 0.00 0.00 0.00 48 1016.0
20260502231555 47 338 2.6 7.8 0.00 0.00 0.00 47 1016.1
20260502230051 47 306 3.5 7.8 0.00 0.00 0.00 47 1016.1
20260502224552 47 342 2.6 7.8 0.00 0.00 0.00 47 1016.2
20260502223054 47 327 2.6 7.0 0.00 0.00 0.00 46 1016.2
20260502221554 47 342 1.7 7.0 0.00 0.00 0.00 45 1016.3
20260502220053 47 15 2.6 7.8 0.00 0.00 0.00 45 1016.3
20260502214617 47 337 5.2 9.6 0.00 0.00 0.00 44 1016.3
20260502213056 47 270 3.5 8.7 0.00 0.00 0.00 46 1016.3
20260502211604 47 325 4.3 8.7 0.00 0.00 0.00 45 1016.4